Time,TemperatureF,DewpointF,PressureIn,WindDirection,WindDirectionDegrees,WindSpeedMPH,WindSpeedGustMPH,Humidity,HourlyPrecipIn,Conditions,Clouds,dailyrainin,SoftwareType,DateUTC
2013-07-21 00:01:00,50.7,46.0,29.95,SE,135,0.0,1.1,84,0.00,,,0.00,WUHU21623XXSP,2013-07-21 05:01:00,
2013-07-21 00:06:00,50.5,45.8,29.95,SE,135,0.0,1.1,84,0.00,,,0.00,WUHU21623XXSP,2013-07-21 05:06:00,
2013-07-21 00:11:00,50.5,46.1,29.95,SE,135,0.0,0.0,85,0.00,,,0.00,WUHU21623XXSP,2013-07-21 05:11:00,
2013-07-21 00:16:00,50.9,46.5,29.95,SE,135,0.0,0.0,85,0.00,,,0.00,WUHU21623XXSP,2013-07-21 05:16:00,
2013-07-21 00:21:00,50.7,46.0,29.95,SE,135,0.0,0.0,84,0.00,,,0.00,WUHU21623XXSP,2013-07-21 05:21:00,
2013-07-21 00:26:00,50.5,46.1,29.94,SE,135,0.0,0.0,85,0.00,,,0.00,WUHU21623XXSP,2013-07-21 05:26:00,
2013-07-21 00:31:00,50.4,46.0,29.94,SE,135,0.0,0.0,85,0.00,,,0.00,WUHU21623XXSP,2013-07-21 05:31:00,
2013-07-21 00:36:00,50.2,45.8,29.94,SE,135,0.0,0.9,85,0.00,,,0.00,WUHU21623XXSP,2013-07-21 05:36:00,
2013-07-21 00:41:00,49.8,45.4,29.95,SE,135,0.0,0.9,85,0.00,,,0.00,WUHU21623XXSP,2013-07-21 05:41:00,
2013-07-21 00:46:00,49.8,45.4,29.95,SE,135,0.0,0.0,85,0.00,,,0.00,WUHU21623XXSP,2013-07-21 05:46:00,
2013-07-21 00:51:00,49.8,45.4,29.95,SE,135,0.0,0.0,85,0.00,,,0.00,WUHU21623XXSP,2013-07-21 05:51:00,
2013-07-21 00:56:00,49.8,45.4,29.95,SE,135,0.0,0.0,85,0.00,,,0.00,WUHU21623XXSP,2013-07-21 05:56:00,
2013-07-21 01:01:00,49.8,45.4,29.94,SE,135,0.0,0.0,85,0.00,,,0.00,WUHU21623XXSP,2013-07-21 06:01:00,
2013-07-21 01:06:00,49.6,45.3,29.94,SE,135,0.0,0.9,85,0.00,,,0.00,WUHU21623XXSP,2013-07-21 06:06:00,
2013-07-21 01:11:00,49.3,44.9,29.94,SE,135,0.0,0.9,85,0.00,,,0.00,WUHU21623XXSP,2013-07-21 06:11:00,
2013-07-21 01:16:00,49.3,44.6,29.94,SE,135,0.0,0.9,84,0.00,,,0.00,WUHU21623XXSP,2013-07-21 06:16:00,
2013-07-21 01:21:00,49.3,44.6,29.94,SSE,157,0.0,1.8,84,0.00,,,0.00,WUHU21623XXSP,2013-07-21 06:21:00,
2013-07-21 01:26:00,49.1,44.4,29.94,SSE,157,0.0,1.8,84,0.00,,,0.00,WUHU21623XXSP,2013-07-21 06:26:00,
2013-07-21 01:31:00,49.3,44.3,29.94,SSE,157,0.0,1.8,83,0.00,,,0.00,WUHU21623XXSP,2013-07-21 06:31:00,
2013-07-21 01:36:00,49.1,44.2,29.94,SSE,157,0.1,1.8,83,0.00,,,0.00,WUHU21623XXSP,2013-07-21 06:36:00,
2013-07-21 01:41:00,48.9,43.9,29.93,SSE,157,1.6,1.6,83,0.00,,,0.00,WUHU21623XXSP,2013-07-21 06:41:00,
2013-07-21 01:46:00,49.1,44.1,29.93,SSE,157,0.0,1.6,83,0.00,,,0.00,WUHU21623XXSP,2013-07-21 06:46:00,
2013-07-21 01:51:00,48.7,43.8,29.93,SE,135,1.1,1.1,83,0.00,,,0.00,WUHU21623XXSP,2013-07-21 06:51:00,
2013-07-21 01:56:00,48.6,43.6,29.93,SSE,157,0.0,1.1,83,0.00,,,0.00,WUHU21623XXSP,2013-07-21 06:56:00,
2013-07-21 02:01:00,48.6,43.3,29.93,SSE,157,0.0,2.9,82,0.00,,,0.00,WUHU21623XXSP,2013-07-21 07:01:00,
2013-07-21 02:06:00,48.0,43.4,29.94,SSE,157,0.0,2.9,84,0.00,,,0.00,WUHU21623XXSP,2013-07-21 07:06:00,
2013-07-21 02:11:00,47.8,43.2,29.94,SSE,157,0.0,0.7,84,0.00,,,0.00,WUHU21623XXSP,2013-07-21 07:11:00,
2013-07-21 02:16:00,48.0,43.4,29.94,SSE,157,0.0,2.7,84,0.00,,,0.00,WUHU21623XXSP,2013-07-21 07:16:00,
2013-07-21 02:21:00,48.0,43.4,29.94,SE,135,1.6,2.7,84,0.00,,,0.00,WUHU21623XXSP,2013-07-21 07:21:00,
2013-07-21 02:26:00,48.0,43.4,29.94,SE,135,0.0,1.6,84,0.00,,,0.00,WUHU21623XXSP,2013-07-21 07:26:00,
2013-07-21 02:31:00,48.0,43.7,29.94,SE,135,0.0,0.1,85,0.00,,,0.00,WUHU21623XXSP,2013-07-21 07:31:00,
2013-07-21 02:36:00,48.0,43.4,29.95,SE,135,0.0,1.3,84,0.00,,,0.00,WUHU21623XXSP,2013-07-21 07:36:00,
2013-07-21 02:41:00,47.8,43.5,29.95,SE,135,0.0,1.3,85,0.00,,,0.00,WUHU21623XXSP,2013-07-21 07:41:00,
2013-07-21 02:46:00,48.0,43.4,29.95,SE,135,0.0,1.3,84,0.00,,,0.00,WUHU21623XXSP,2013-07-21 07:46:00,
2013-07-21 02:51:00,48.2,43.6,29.95,SE,135,0.1,1.3,84,0.00,,,0.00,WUHU21623XXSP,2013-07-21 07:51:00,
2013-07-21 02:56:00,48.0,43.4,29.95,SSE,157,1.8,1.8,84,0.00,,,0.00,WUHU21623XXSP,2013-07-21 07:56:00,
2013-07-21 03:01:00,48.2,43.2,29.95,SE,135,0.0,1.8,83,0.00,,,0.00,WUHU21623XXSP,2013-07-21 08:01:00,
2013-07-21 03:06:00,47.8,43.2,29.95,SE,135,0.0,1.6,84,0.00,,,0.00,WUHU21623XXSP,2013-07-21 08:06:00,
2013-07-21 03:11:00,48.0,43.4,29.95,SE,135,0.0,0.1,84,0.00,,,0.00,WUHU21623XXSP,2013-07-21 08:11:00,
2013-07-21 03:16:00,47.8,43.2,29.95,SE,135,0.0,0.1,84,0.00,,,0.00,WUHU21623XXSP,2013-07-21 08:16:00,
2013-07-21 03:21:00,47.7,43.1,29.95,SSE,153,0.0,0.0,84,0.00,,,0.00,WUHU21623XXSP,2013-07-21 08:21:00,
2013-07-21 03:26:00,47.1,42.9,29.95,SE,135,0.0,0.0,85,0.00,,,0.00,WUHU21623XXSP,2013-07-21 08:26:00,
2013-07-21 03:31:00,47.1,42.9,29.95,SE,135,0.0,0.0,85,0.00,,,0.00,WUHU21623XXSP,2013-07-21 08:31:00,
2013-07-21 03:36:00,46.9,43.0,29.95,SE,135,0.0,0.0,86,0.00,,,0.00,WUHU21623XXSP,2013-07-21 08:36:00,
2013-07-21 03:41:00,46.8,42.8,29.94,SE,135,0.0,0.0,86,0.00,,,0.00,WUHU21623XXSP,2013-07-21 08:41:00,
2013-07-21 03:46:00,46.9,43.0,29.94,SE,135,0.0,0.0,86,0.00,,,0.00,WUHU21623XXSP,2013-07-21 08:46:00,
2013-07-21 03:51:00,47.1,43.2,29.95,SE,135,0.0,0.0,86,0.00,,,0.00,WUHU21623XXSP,2013-07-21 08:51:00,
2013-07-21 03:57:00,47.1,43.2,29.95,SE,135,0.0,0.0,86,0.00,,,0.00,WUHU21623XXSP,2013-07-21 08:57:00,
2013-07-21 04:02:00,46.9,43.0,29.95,SE,135,0.0,0.0,86,0.00,,,0.00,WUHU21623XXSP,2013-07-21 09:02:00,
2013-07-21 04:07:00,46.9,43.0,29.94,SE,135,0.0,0.0,86,0.00,,,0.00,WUHU21623XXSP,2013-07-21 09:07:00,
2013-07-21 04:12:00,46.2,42.3,29.94,SE,135,0.0,0.0,86,0.00,,,0.00,WUHU21623XXSP,2013-07-21 09:12:00,
2013-07-21 04:17:00,46.2,42.3,29.94,SE,135,0.0,0.0,86,0.00,,,0.00,WUHU21623XXSP,2013-07-21 09:17:00,
2013-07-21 04:22:00,46.0,42.1,29.94,South,180,0.0,0.0,86,0.00,,,0.00,WUHU21623XXSP,2013-07-21 09:22:00,
2013-07-21 04:27:00,46.0,42.1,29.93,South,180,0.0,0.0,86,0.00,,,0.00,WUHU21623XXSP,2013-07-21 09:27:00,
2013-07-21 04:32:00,45.7,41.8,29.93,South,180,0.0,0.0,86,0.00,,,0.00,WUHU21623XXSP,2013-07-21 09:32:00,
2013-07-21 04:37:00,45.7,41.8,29.93,South,180,0.0,0.0,86,0.00,,,0.00,WUHU21623XXSP,2013-07-21 09:37:00,
2013-07-21 04:42:00,45.7,41.8,29.93,South,180,0.0,0.0,86,0.00,,,0.00,WUHU21623XXSP,2013-07-21 09:42:00,
2013-07-21 04:47:00,45.5,41.6,29.93,South,180,0.0,0.0,86,0.00,,,0.00,WUHU21623XXSP,2013-07-21 09:47:00,
2013-07-21 04:52:00,45.7,42.1,29.93,South,180,0.0,0.0,87,0.00,,,0.00,WUHU21623XXSP,2013-07-21 09:52:00,
2013-07-21 04:53:00,45.5,41.6,29.92,South,180,0.0,0.0,86,0.00,,,0.00,WUHU21623XXSP,2013-07-21 09:53:00,
2013-07-21 04:58:00,45.3,41.7,29.92,South,180,0.0,0.0,87,0.00,,,0.00,WUHU21623XXSP,2013-07-21 09:58:00,
2013-07-21 05:03:00,45.3,41.4,29.92,South,180,0.0,0.0,86,0.00,,,0.00,WUHU21623XXSP,2013-07-21 10:03:00,
2013-07-21 05:08:00,45.7,41.8,29.92,SSE,157,0.0,0.0,86,0.00,,,0.00,WUHU21623XXSP,2013-07-21 10:08:00,
2013-07-21 05:13:00,45.3,41.4,29.93,SSE,157,0.0,2.0,86,0.00,,,0.00,WUHU21623XXSP,2013-07-21 10:13:00,
2013-07-21 05:18:00,45.3,41.4,29.93,SSE,157,0.0,2.0,86,0.00,,,0.00,WUHU21623XXSP,2013-07-21 10:18:00,
2013-07-21 05:23:00,45.1,41.2,29.92,SSE,157,0.0,0.0,86,0.00,,,0.00,WUHU21623XXSP,2013-07-21 10:23:00,
2013-07-21 05:28:00,45.0,41.0,29.93,SSE,157,0.0,0.0,86,0.00,,,0.00,WUHU21623XXSP,2013-07-21 10:28:00,
2013-07-21 05:33:00,45.0,41.0,29.93,SSE,157,0.0,0.0,86,0.00,,,0.00,WUHU21623XXSP,2013-07-21 10:33:00,
2013-07-21 05:38:00,45.0,41.0,29.93,SSE,157,0.0,0.0,86,0.00,,,0.00,WUHU21623XXSP,2013-07-21 10:38:00,
2013-07-21 05:43:00,45.0,41.0,29.93,SSE,157,0.0,0.0,86,0.00,,,0.00,WUHU21623XXSP,2013-07-21 10:43:00,
2013-07-21 05:48:00,45.0,41.0,29.93,SSE,157,0.0,0.0,86,0.00,,,0.00,WUHU21623XXSP,2013-07-21 10:48:00,
2013-07-21 05:53:00,45.1,41.2,29.93,SSE,157,0.0,0.0,86,0.00,,,0.00,WUHU21623XXSP,2013-07-21 10:53:00,
2013-07-21 05:58:00,45.1,41.2,29.93,SSE,157,0.0,0.0,86,0.00,,,0.00,WUHU21623XXSP,2013-07-21 10:58:00,
2013-07-21 06:03:00,45.7,41.7,29.93,NNW,337,0.0,0.7,86,0.00,,,0.00,WUHU21623XXSP,2013-07-21 11:03:00,
2013-07-21 06:08:00,45.7,41.8,29.93,SSE,157,0.0,0.7,86,0.00,,,0.00,WUHU21623XXSP,2013-07-21 11:08:00,
2013-07-21 06:13:00,45.7,41.8,29.93,SSE,157,0.0,0.0,86,0.00,,,0.00,WUHU21623XXSP,2013-07-21 11:13:00,
2013-07-21 06:18:00,45.7,41.8,29.93,SSE,157,0.0,0.9,86,0.00,,,0.00,WUHU21623XXSP,2013-07-21 11:18:00,
2013-07-21 06:23:00,46.0,42.1,29.93,SSE,157,0.0,0.9,86,0.00,,,0.00,WUHU21623XXSP,2013-07-21 11:23:00,
2013-07-21 06:28:00,46.2,42.3,29.93,SSE,157,0.0,0.0,86,0.00,,,0.00,WUHU21623XXSP,2013-07-21 11:28:00,
2013-07-21 06:33:00,46.2,42.3,29.93,SSE,157,0.0,0.0,86,0.00,,,0.00,WUHU21623XXSP,2013-07-21 11:33:00,
2013-07-21 06:38:00,46.6,42.6,29.93,SSE,157,0.0,0.0,86,0.00,,,0.00,WUHU21623XXSP,2013-07-21 11:38:00,
2013-07-21 06:43:00,46.8,42.8,29.93,SSE,157,0.0,0.0,86,0.00,,,0.00,WUHU21623XXSP,2013-07-21 11:43:00,
2013-07-21 06:48:00,46.9,43.0,29.94,SSE,157,0.0,0.0,86,0.00,,,0.00,WUHU21623XXSP,2013-07-21 11:48:00,
2013-07-21 06:53:00,47.1,42.9,29.94,SSE,157,0.0,2.2,85,0.00,,,0.00,WUHU21623XXSP,2013-07-21 11:53:00,
2013-07-21 06:58:00,47.8,43.5,29.94,SSE,157,0.0,2.2,85,0.00,,,0.00,WUHU21623XXSP,2013-07-21 11:58:00,
2013-07-21 07:03:00,48.0,43.7,29.94,SSE,157,0.0,0.0,85,0.00,,,0.00,WUHU21623XXSP,2013-07-21 12:03:00,
2013-07-21 07:08:00,48.4,44.0,29.94,SE,135,0.9,0.9,85,0.00,,,0.00,WUHU21623XXSP,2013-07-21 12:08:00,
2013-07-21 07:13:00,49.6,44.3,29.94,SE,135,0.0,2.2,82,0.00,,,0.00,WUHU21623XXSP,2013-07-21 12:13:00,
2013-07-21 07:18:00,49.6,44.6,29.94,SSE,157,1.3,2.2,83,0.00,,,0.00,WUHU21623XXSP,2013-07-21 12:18:00,
2013-07-21 07:23:00,50.0,44.7,29.94,SSE,157,0.0,2.0,82,0.00,,,0.00,WUHU21623XXSP,2013-07-21 12:23:00,
2013-07-21 07:28:00,50.7,45.1,29.93,SE,135,0.0,4.0,81,0.00,,,0.00,WUHU21623XXSP,2013-07-21 12:28:00,
2013-07-21 07:33:00,50.9,45.3,29.93,South,180,0.0,4.0,81,0.00,,,0.00,WUHU21623XXSP,2013-07-21 12:33:00,
2013-07-21 07:38:00,51.6,45.0,29.93,SSE,157,0.0,5.6,78,0.00,,,0.00,WUHU21623XXSP,2013-07-21 12:38:00,
2013-07-21 07:43:00,52.3,45.4,29.93,South,180,0.0,5.6,77,0.00,,,0.00,WUHU21623XXSP,2013-07-21 12:43:00,
2013-07-21 07:48:00,52.3,45.0,29.94,SSE,157,0.0,3.1,76,0.00,,,0.00,WUHU21623XXSP,2013-07-21 12:48:00,
2013-07-21 07:53:00,52.7,45.4,29.94,South,180,2.9,3.1,76,0.00,,,0.00,WUHU21623XXSP,2013-07-21 12:53:00,
2013-07-21 07:58:00,53.2,45.5,29.94,ESE,112,0.0,4.0,75,0.00,,,0.00,WUHU21623XXSP,2013-07-21 12:58:00,
2013-07-21 08:03:00,53.6,45.5,29.94,SSE,157,0.0,4.0,74,0.00,,,0.00,WUHU21623XXSP,2013-07-21 13:03:00,
2013-07-21 08:08:00,54.1,46.0,29.94,SSW,202,3.1,3.1,74,0.00,,,0.00,WUHU21623XXSP,2013-07-21 13:08:00,
2013-07-21 08:13:00,55.0,47.2,29.94,SE,135,0.0,3.6,75,0.00,,,0.00,WUHU21623XXSP,2013-07-21 13:13:00,
2013-07-21 08:18:00,55.2,45.7,29.94,SE,135,1.6,3.6,70,0.00,,,0.00,WUHU21623XXSP,2013-07-21 13:18:00,
2013-07-21 08:23:00,55.6,46.7,29.94,SE,135,0.0,4.0,72,0.00,,,0.00,WUHU21623XXSP,2013-07-21 13:23:00,
2013-07-21 08:28:00,55.9,47.0,29.94,SE,135,4.0,4.0,72,0.00,,,0.00,WUHU21623XXSP,2013-07-21 13:28:00,
2013-07-21 08:33:00,56.5,45.6,29.94,SE,135,0.0,7.6,67,0.00,,,0.00,WUHU21623XXSP,2013-07-21 13:33:00,
2013-07-21 08:38:00,56.8,46.7,29.94,South,180,2.0,7.6,69,0.00,,,0.00,WUHU21623XXSP,2013-07-21 13:38:00,
2013-07-21 08:43:00,57.0,46.5,29.94,SSW,202,0.0,6.3,68,0.00,,,0.00,WUHU21623XXSP,2013-07-21 13:43:00,
2013-07-21 08:48:00,57.6,45.8,29.94,SSE,157,2.5,7.4,65,0.00,,,0.00,WUHU21623XXSP,2013-07-21 13:48:00,
2013-07-21 08:53:00,58.3,46.9,29.94,South,180,0.0,7.4,66,0.00,,,0.00,WUHU21623XXSP,2013-07-21 13:53:00,
2013-07-21 08:58:00,58.6,46.9,29.93,ESE,112,5.6,7.4,65,0.00,,,0.00,WUHU21623XXSP,2013-07-21 13:58:00,
2013-07-21 09:03:00,59.2,47.0,29.93,SE,135,2.9,5.6,64,0.00,,,0.00,WUHU21623XXSP,2013-07-21 14:03:00,
2013-07-21 09:08:00,59.5,46.9,29.93,ESE,112,0.4,4.9,63,0.00,,,0.00,WUHU21623XXSP,2013-07-21 14:08:00,
2013-07-21 09:13:00,60.1,47.5,29.93,SE,135,0.9,6.9,63,0.00,,,0.00,WUHU21623XXSP,2013-07-21 14:13:00,
2013-07-21 09:18:00,60.6,47.6,29.94,South,180,3.4,6.9,62,0.00,,,0.00,WUHU21623XXSP,2013-07-21 14:18:00,
2013-07-21 09:23:00,62.2,49.1,29.94,SSW,202,0.0,5.6,62,0.00,,,0.00,WUHU21623XXSP,2013-07-21 14:23:00,
2013-07-21 09:28:00,62.4,48.8,29.93,SSW,202,0.0,2.7,61,0.00,,,0.00,WUHU21623XXSP,2013-07-21 14:28:00,
2013-07-21 09:33:00,62.8,49.5,29.93,ENE,67,0.0,3.4,62,0.00,,,0.00,WUHU21623XXSP,2013-07-21 14:33:00,
2013-07-21 09:38:00,63.5,50.2,29.93,SSE,157,0.0,3.4,62,0.00,,,0.00,WUHU21623XXSP,2013-07-21 14:38:00,
2013-07-21 09:43:00,63.7,49.5,29.93,ESE,112,1.3,2.5,60,0.00,,,0.00,WUHU21623XXSP,2013-07-21 14:43:00,
2013-07-21 09:48:00,63.7,49.0,29.93,SE,135,0.9,5.4,59,0.00,,,0.00,WUHU21623XXSP,2013-07-21 14:48:00,
2013-07-21 09:53:00,64.0,49.4,29.93,SSE,157,0.9,5.4,59,0.00,,,0.00,WUHU21623XXSP,2013-07-21 14:53:00,
2013-07-21 09:58:00,64.2,50.4,29.93,South,180,1.1,3.6,61,0.00,,,0.00,WUHU21623XXSP,2013-07-21 14:58:00,
2013-07-21 10:03:00,65.1,49.9,29.93,SSE,157,1.1,6.9,58,0.00,,,0.00,WUHU21623XXSP,2013-07-21 15:03:00,
2013-07-21 10:08:00,64.8,48.6,29.93,SE,135,2.2,6.9,56,0.00,,,0.00,WUHU21623XXSP,2013-07-21 15:08:00,
2013-07-21 10:13:00,64.6,49.4,29.92,SE,135,2.2,4.9,58,0.00,,,0.00,WUHU21623XXSP,2013-07-21 15:13:00,
2013-07-21 10:18:00,64.6,48.9,29.92,SE,135,1.6,6.0,57,0.00,,,0.00,WUHU21623XXSP,2013-07-21 15:18:00,
2013-07-21 10:23:00,66.0,49.9,29.92,SE,135,0.0,6.0,56,0.00,,,0.00,WUHU21623XXSP,2013-07-21 15:23:00,
2013-07-21 10:28:00,65.7,49.5,29.92,SSE,157,2.9,5.6,56,0.00,,,0.00,WUHU21623XXSP,2013-07-21 15:28:00,
2013-07-21 10:33:00,65.1,49.9,29.92,SE,135,2.0,5.6,58,0.00,,,0.00,WUHU21623XXSP,2013-07-21 15:33:00,
2013-07-21 10:38:00,65.1,49.0,29.92,ENE,67,0.0,5.8,56,0.00,,,0.00,WUHU21623XXSP,2013-07-21 15:38:00,
2013-07-21 10:43:00,66.4,50.2,29.92,NE,45,1.6,8.5,56,0.00,,,0.00,WUHU21623XXSP,2013-07-21 15:43:00,
2013-07-21 10:48:00,66.0,51.3,29.92,SSW,202,2.0,8.5,59,0.00,,,0.00,WUHU21623XXSP,2013-07-21 15:48:00,
2013-07-21 10:53:00,66.9,50.7,29.91,SSE,157,3.8,5.8,56,0.00,,,0.00,WUHU21623XXSP,2013-07-21 15:53:00,
2013-07-21 10:58:00,66.6,49.9,29.91,SSW,202,0.0,6.3,55,0.00,,,0.00,WUHU21623XXSP,2013-07-21 15:58:00,
2013-07-21 11:03:00,66.6,50.4,29.91,SSE,157,0.0,6.3,56,0.00,,,0.00,WUHU21623XXSP,2013-07-21 16:03:00,
2013-07-21 11:08:00,66.7,50.0,29.91,SE,135,0.0,7.2,55,0.00,,,0.00,WUHU21623XXSP,2013-07-21 16:08:00,
2013-07-21 11:13:00,67.3,50.5,29.91,SSE,157,0.0,7.2,55,0.00,,,0.00,WUHU21623XXSP,2013-07-21 16:13:00,
2013-07-21 11:18:00,67.8,50.5,29.90,South,180,1.8,6.0,54,0.00,,,0.00,WUHU21623XXSP,2013-07-21 16:18:00,
2013-07-21 11:23:00,68.5,52.7,29.90,South,180,0.0,6.0,57,0.00,,,0.00,WUHU21623XXSP,2013-07-21 16:23:00,
2013-07-21 11:28:00,69.4,51.0,29.90,NE,45,5.6,6.0,52,0.00,,,0.00,WUHU21623XXSP,2013-07-21 16:28:00,
2013-07-21 11:33:00,68.7,49.9,29.90,South,180,2.0,5.6,51,0.00,,,0.00,WUHU21623XXSP,2013-07-21 16:33:00,
2013-07-21 11:38:00,69.6,52.2,29.90,SE,135,5.6,7.2,54,0.00,,,0.00,WUHU21623XXSP,2013-07-21 16:38:00,
2013-07-21 11:43:00,68.7,49.9,29.90,SE,135,0.0,7.2,51,0.00,,,0.00,WUHU21623XXSP,2013-07-21 16:43:00,
2013-07-21 11:48:00,67.8,50.0,29.90,SE,135,1.6,6.5,53,0.00,,,0.00,WUHU21623XXSP,2013-07-21 16:48:00,
2013-07-21 11:54:00,68.2,49.9,29.90,South,180,2.0,6.0,52,0.00,,,0.00,WUHU21623XXSP,2013-07-21 16:54:00,
2013-07-21 11:59:00,69.6,52.2,29.90,SSE,157,3.1,6.9,54,0.00,,,0.00,WUHU21623XXSP,2013-07-21 16:59:00,
2013-07-21 12:04:00,69.1,51.2,29.91,SSE,157,0.0,6.9,53,0.00,,,0.00,WUHU21623XXSP,2013-07-21 17:04:00,
2013-07-21 12:09:00,68.7,51.4,29.90,South,180,3.4,6.5,54,0.00,,,0.00,WUHU21623XXSP,2013-07-21 17:09:00,
2013-07-21 12:14:00,69.6,50.7,29.90,South,180,1.1,3.6,51,0.00,,,0.00,WUHU21623XXSP,2013-07-21 17:14:00,
2013-07-21 12:19:00,67.8,50.0,29.91,ESE,112,0.0,3.1,53,0.00,,,0.00,WUHU21623XXSP,2013-07-21 17:19:00,
2013-07-21 12:24:00,67.8,50.0,29.90,ESE,112,2.0,3.1,53,0.00,,,0.00,WUHU21623XXSP,2013-07-21 17:24:00,
2013-07-21 12:29:00,67.6,53.7,29.90,SE,135,0.0,2.0,61,0.00,,,0.00,WUHU21623XXSP,2013-07-21 17:29:00,
2013-07-21 12:34:00,67.8,51.5,29.90,SSE,157,0.0,2.7,56,0.00,,,0.00,WUHU21623XXSP,2013-07-21 17:34:00,
2013-07-21 12:39:00,67.6,53.7,29.90,SSE,157,2.7,2.7,61,0.00,,,0.00,WUHU21623XXSP,2013-07-21 17:39:00,
2013-07-21 12:44:00,68.2,51.3,29.90,ESE,112,6.0,6.0,55,0.00,,,0.00,WUHU21623XXSP,2013-07-21 17:44:00,
2013-07-21 12:48:00,69.6,52.2,29.89,WSW,247,5.6,6.7,54,0.00,,,0.00,WUHU21623XXSP,2013-07-21 17:48:00,
2013-07-21 12:53:00,68.7,49.9,29.90,SSW,202,2.0,9.6,51,0.00,,,0.00,WUHU21623XXSP,2013-07-21 17:53:00,
2013-07-21 12:58:00,67.8,51.0,29.89,South,180,0.0,9.6,55,0.00,,,0.00,WUHU21623XXSP,2013-07-21 17:58:00,
2013-07-21 13:03:00,67.6,50.8,29.89,SW,225,3.8,6.0,55,0.00,,,0.00,WUHU21623XXSP,2013-07-21 18:03:00,
2013-07-21 13:08:00,68.5,50.7,29.89,SE,135,1.3,6.0,53,0.00,,,0.00,WUHU21623XXSP,2013-07-21 18:08:00,
2013-07-21 13:13:00,67.8,53.0,29.88,SSE,157,0.2,6.0,59,0.00,,,0.00,WUHU21623XXSP,2013-07-21 18:13:00,
2013-07-21 13:18:00,69.1,51.2,29.88,SSE,157,2.7,6.3,53,0.00,,,0.00,WUHU21623XXSP,2013-07-21 18:18:00,
2013-07-21 13:23:00,68.7,49.9,29.88,SSW,202,0.0,7.8,51,0.00,,,0.00,WUHU21623XXSP,2013-07-21 18:23:00,
2013-07-21 13:28:00,68.9,51.5,29.88,SW,225,7.2,8.1,54,0.00,,,0.00,WUHU21623XXSP,2013-07-21 18:28:00,
2013-07-21 13:34:00,68.4,50.5,29.88,SE,135,7.8,8.1,53,0.00,,,0.00,WUHU21623XXSP,2013-07-21 18:34:00,
2013-07-21 13:39:00,69.8,53.4,29.88,ESE,112,1.3,7.8,56,0.00,,,0.00,WUHU21623XXSP,2013-07-21 18:39:00,
2013-07-21 13:44:00,68.9,51.0,29.87,South,180,3.6,4.5,53,0.00,,,0.00,WUHU21623XXSP,2013-07-21 18:44:00,
2013-07-21 13:49:00,67.8,52.5,29.87,SE,135,0.0,6.9,58,0.00,,,0.00,WUHU21623XXSP,2013-07-21 18:49:00,
2013-07-21 13:54:00,68.4,53.5,29.86,South,180,0.0,6.9,59,0.00,,,0.00,WUHU21623XXSP,2013-07-21 18:54:00,
2013-07-21 13:59:00,69.1,51.2,29.86,SE,135,2.0,7.6,53,0.00,,,0.00,WUHU21623XXSP,2013-07-21 18:59:00,
2013-07-21 14:04:00,70.3,51.9,29.86,South,180,1.6,7.6,52,0.00,,,0.00,WUHU21623XXSP,2013-07-21 19:04:00,
2013-07-21 14:09:00,68.9,51.0,29.86,SE,135,3.4,4.9,53,0.00,,,0.00,WUHU21623XXSP,2013-07-21 19:09:00,
2013-07-21 14:14:00,69.6,51.7,29.86,South,180,1.3,7.2,53,0.00,,,0.00,WUHU21623XXSP,2013-07-21 19:14:00,
2013-07-21 14:19:00,69.1,51.7,29.86,SE,135,2.7,7.2,54,0.00,,,0.00,WUHU21623XXSP,2013-07-21 19:19:00,
2013-07-21 14:24:00,69.6,53.2,29.85,SSE,157,0.4,6.0,56,0.00,,,0.00,WUHU21623XXSP,2013-07-21 19:24:00,
2013-07-21 14:29:00,69.6,52.2,29.85,South,180,6.9,6.9,54,0.00,,,0.00,WUHU21623XXSP,2013-07-21 19:29:00,
2013-07-21 14:34:00,70.5,51.5,29.86,SSE,157,0.0,7.2,51,0.00,,,0.00,WUHU21623XXSP,2013-07-21 19:34:00,
2013-07-21 14:39:00,70.3,51.9,29.86,ESE,112,1.8,7.2,52,0.00,,,0.00,WUHU21623XXSP,2013-07-21 19:39:00,
2013-07-21 14:44:00,70.7,52.7,29.85,WNW,292,1.3,6.0,53,0.00,,,0.00,WUHU21623XXSP,2013-07-21 19:44:00,
2013-07-21 14:49:00,72.1,53.0,29.85,West,270,1.8,8.1,51,0.00,,,0.00,WUHU21623XXSP,2013-07-21 19:49:00,
2013-07-21 14:54:00,73.0,53.8,29.85,SW,225,8.1,8.1,51,0.00,,,0.00,WUHU21623XXSP,2013-07-21 19:54:00,
2013-07-21 14:59:00,72.3,52.0,29.85,WSW,247,0.0,8.1,49,0.00,,,0.00,WUHU21623XXSP,2013-07-21 19:59:00,
2013-07-21 15:04:00,71.4,52.8,29.85,SSE,157,0.0,6.5,52,0.00,,,0.00,WUHU21623XXSP,2013-07-21 20:04:00,
2013-07-21 15:09:00,71.4,52.8,29.85,SSW,202,0.0,7.8,52,0.00,,,0.00,WUHU21623XXSP,2013-07-21 20:09:00,
2013-07-21 15:14:00,70.5,53.0,29.85,SSW,202,2.2,7.8,54,0.00,,,0.00,WUHU21623XXSP,2013-07-21 20:14:00,
2013-07-21 15:19:00,69.1,53.2,29.85,South,180,2.0,3.1,57,0.00,,,0.00,WUHU21623XXSP,2013-07-21 20:19:00,
2013-07-21 15:24:00,69.3,51.9,29.85,South,180,0.7,7.4,54,0.00,,,0.00,WUHU21623XXSP,2013-07-21 20:24:00,
2013-07-21 15:29:00,69.3,51.9,29.85,SSW,202,2.2,7.4,54,0.00,,,0.00,WUHU21623XXSP,2013-07-21 20:29:00,
2013-07-21 15:34:00,71.2,52.7,29.84,SSE,157,2.0,2.9,52,0.00,,,0.00,WUHU21623XXSP,2013-07-21 20:34:00,
2013-07-21 15:39:00,72.3,53.1,29.84,South,180,2.0,3.6,51,0.00,,,0.00,WUHU21623XXSP,2013-07-21 20:39:00,
2013-07-21 15:44:00,72.5,52.2,29.84,SSE,157,3.4,3.8,49,0.00,,,0.00,WUHU21623XXSP,2013-07-21 20:44:00,
2013-07-21 15:49:00,72.3,52.0,29.84,WSW,247,1.6,6.7,49,0.00,,,0.00,WUHU21623XXSP,2013-07-21 20:49:00,
2013-07-21 15:54:00,73.0,52.1,29.83,WSW,247,3.1,6.7,48,0.00,,,0.00,WUHU21623XXSP,2013-07-21 20:54:00,
2013-07-21 15:59:00,72.1,51.3,29.83,WSW,247,2.0,3.4,48,0.00,,,0.00,WUHU21623XXSP,2013-07-21 20:59:00,
2013-07-21 16:04:00,72.7,55.0,29.83,WSW,247,0.0,7.2,54,0.00,,,0.00,WUHU21623XXSP,2013-07-21 21:04:00,
2013-07-21 16:09:00,72.3,52.0,29.83,WSW,247,0.0,7.6,49,0.00,,,0.00,WUHU21623XXSP,2013-07-21 21:09:00,
2013-07-21 16:14:00,71.8,52.1,29.84,South,180,2.7,7.6,50,0.00,,,0.00,WUHU21623XXSP,2013-07-21 21:14:00,
2013-07-21 16:19:00,71.2,53.2,29.83,South,180,0.9,6.9,53,0.00,,,0.00,WUHU21623XXSP,2013-07-21 21:19:00,
2013-07-21 16:24:00,70.9,53.9,29.83,SSW,202,2.0,6.9,55,0.00,,,0.00,WUHU21623XXSP,2013-07-21 21:24:00,
2013-07-21 16:29:00,70.5,52.5,29.83,SSE,157,1.3,2.9,53,0.00,,,0.00,WUHU21623XXSP,2013-07-21 21:29:00,
2013-07-21 16:34:00,70.9,53.9,29.83,WSW,247,0.0,2.7,55,0.00,,,0.00,WUHU21623XXSP,2013-07-21 21:34:00,
2013-07-21 16:39:00,71.4,52.3,29.83,WSW,247,0.0,2.5,51,0.00,,,0.00,WUHU21623XXSP,2013-07-21 21:39:00,
2013-07-21 16:44:00,73.4,53.0,29.82,WSW,247,1.8,3.4,49,0.00,,,0.00,WUHU21623XXSP,2013-07-21 21:44:00,
2013-07-21 16:49:00,72.7,52.4,29.82,WSW,247,1.6,3.8,49,0.00,,,0.00,WUHU21623XXSP,2013-07-21 21:49:00,
2013-07-21 16:54:00,72.3,52.0,29.82,WSW,247,4.0,8.1,49,0.00,,,0.00,WUHU21623XXSP,2013-07-21 21:54:00,
2013-07-21 16:59:00,72.5,53.3,29.82,WSW,247,0.0,8.1,51,0.00,,,0.00,WUHU21623XXSP,2013-07-21 21:59:00,
2013-07-21 17:04:00,72.5,53.3,29.82,WSW,247,2.0,5.4,51,0.00,,,0.00,WUHU21623XXSP,2013-07-21 22:04:00,
2013-07-21 17:09:00,71.8,53.7,29.82,South,180,4.0,8.3,53,0.00,,,0.00,WUHU21623XXSP,2013-07-21 22:09:00,
2013-07-21 17:14:00,70.7,52.2,29.81,WSW,247,2.9,8.3,52,0.00,,,0.00,WUHU21623XXSP,2013-07-21 22:14:00,
2013-07-21 17:19:00,71.2,53.7,29.81,WSW,247,1.8,6.9,54,0.00,,,0.00,WUHU21623XXSP,2013-07-21 22:19:00,
2013-07-21 17:24:00,71.2,53.7,29.80,WSW,247,0.0,6.9,54,0.00,,,0.00,WUHU21623XXSP,2013-07-21 22:24:00,
2013-07-21 17:29:00,71.4,53.3,29.80,South,180,1.6,6.9,53,0.00,,,0.00,WUHU21623XXSP,2013-07-21 22:29:00,
2013-07-21 17:34:00,69.3,53.9,29.80,WSW,247,0.7,5.6,58,0.00,,,0.00,WUHU21623XXSP,2013-07-21 22:34:00,
2013-07-21 17:39:00,69.4,54.0,29.80,WSW,247,2.0,5.6,58,0.00,,,0.00,WUHU21623XXSP,2013-07-21 22:39:00,
2013-07-21 17:44:00,70.5,53.0,29.80,WSW,247,2.9,6.9,54,0.00,,,0.00,WUHU21623XXSP,2013-07-21 22:44:00,
2013-07-21 17:49:00,70.5,53.0,29.80,WSW,247,2.2,6.9,54,0.00,,,0.00,WUHU21623XXSP,2013-07-21 22:49:00,
2013-07-21 17:54:00,70.5,52.5,29.80,WSW,247,3.8,6.3,53,0.00,,,0.00,WUHU21623XXSP,2013-07-21 22:54:00,
2013-07-21 17:59:00,70.5,54.0,29.79,WSW,247,2.0,6.7,56,0.00,,,0.00,WUHU21623XXSP,2013-07-21 22:59:00,
2013-07-21 18:04:00,70.0,52.5,29.80,SSE,157,2.5,6.7,54,0.00,,,0.00,WUHU21623XXSP,2013-07-21 23:04:00,
2013-07-21 18:09:00,69.6,53.7,29.79,ESE,112,0.0,5.1,57,0.00,,,0.00,WUHU21623XXSP,2013-07-21 23:09:00,
2013-07-21 18:14:00,68.7,52.8,29.79,SSE,157,3.1,5.1,57,0.00,,,0.00,WUHU21623XXSP,2013-07-21 23:14:00,
2013-07-21 18:19:00,69.3,53.3,29.79,SSE,157,0.0,5.4,57,0.00,,,0.00,WUHU21623XXSP,2013-07-21 23:19:00,
2013-07-21 18:24:00,69.4,53.0,29.80,SE,135,0.7,8.3,56,0.00,,,0.00,WUHU21623XXSP,2013-07-21 23:24:00,
2013-07-21 18:29:00,69.4,53.0,29.79,SSE,157,2.0,8.3,56,0.00,,,0.00,WUHU21623XXSP,2013-07-21 23:29:00,
2013-07-21 18:34:00,69.4,54.5,29.79,ESE,112,0.9,5.6,59,0.00,,,0.00,WUHU21623XXSP,2013-07-21 23:34:00,
2013-07-21 18:39:00,69.1,53.2,29.79,SSE,157,2.7,4.0,57,0.00,,,0.00,WUHU21623XXSP,2013-07-21 23:39:00,
2013-07-21 18:44:00,69.1,53.9,29.80,SSE,163,0.9,4.0,58,0.00,,,0.00,WUHU21623XXSP,2013-07-21 23:44:00,
2013-07-21 18:49:00,68.9,53.5,29.79,East,90,0.0,5.4,58,0.00,,,0.00,WUHU21623XXSP,2013-07-21 23:49:00,
2013-07-21 18:54:00,68.4,53.0,29.79,South,180,0.0,7.4,58,0.00,,,0.00,WUHU21623XXSP,2013-07-21 23:54:00,
2013-07-21 18:59:00,67.8,53.1,29.79,NNW,337,1.2,7.4,59,0.00,,,0.00,WUHU21623XXSP,2013-07-21 23:59:00,
2013-07-21 19:04:00,67.8,52.5,29.79,SE,135,0.0,6.0,58,0.00,,,0.00,WUHU21623XXSP,2013-07-22 00:04:00,
2013-07-21 19:09:00,67.3,52.5,29.79,South,180,2.5,6.0,59,0.00,,,0.00,WUHU21623XXSP,2013-07-22 00:09:00,
2013-07-21 19:14:00,67.3,53.4,29.79,East,90,0.0,4.0,61,0.00,,,0.00,WUHU21623XXSP,2013-07-22 00:14:00,
2013-07-21 19:19:00,67.3,53.0,29.79,NE,45,0.0,4.5,60,0.00,,,0.00,WUHU21623XXSP,2013-07-22 00:19:00,
2013-07-21 19:24:00,67.1,53.2,29.79,SE,135,0.0,5.6,61,0.00,,,0.00,WUHU21623XXSP,2013-07-22 00:24:00,
2013-07-21 19:29:00,66.9,53.0,29.78,ESE,112,0.0,5.6,61,0.00,,,0.00,WUHU21623XXSP,2013-07-22 00:29:00,
2013-07-21 19:34:00,66.7,53.4,29.78,SE,143,1.3,5.4,62,0.00,,,0.00,WUHU21623XXSP,2013-07-22 00:34:00,
2013-07-21 19:39:00,66.4,53.5,29.78,SSE,157,0.7,7.2,63,0.00,,,0.00,WUHU21623XXSP,2013-07-22 00:39:00,
2013-07-21 19:44:00,66.0,53.5,29.78,SSE,157,2.2,7.2,64,0.00,,,0.00,WUHU21623XXSP,2013-07-22 00:44:00,
2013-07-21 19:49:00,65.8,54.3,29.78,SSE,149,0.9,5.6,66,0.00,,,0.00,WUHU21623XXSP,2013-07-22 00:49:00,
2013-07-21 19:54:00,65.7,54.2,29.78,SSE,149,0.9,5.1,66,0.00,,,0.00,WUHU21623XXSP,2013-07-22 00:54:00,
2013-07-21 19:59:00,65.5,53.2,29.77,SSE,166,1.4,5.1,64,0.00,,,0.00,WUHU21623XXSP,2013-07-22 00:59:00,
2013-07-21 20:04:00,65.1,53.4,29.77,SE,135,0.0,5.8,66,0.00,,,0.00,WUHU21623XXSP,2013-07-22 01:04:00,
2013-07-21 20:09:00,64.8,53.1,29.77,SSE,157,0.9,5.8,66,0.00,,,0.00,WUHU21623XXSP,2013-07-22 01:09:00,
2013-07-21 20:14:00,64.9,52.8,29.78,ESE,112,0.9,6.3,65,0.00,,,0.00,WUHU21623XXSP,2013-07-22 01:14:00,
2013-07-21 20:19:00,64.6,52.1,29.77,SSE,157,0.0,6.3,64,0.00,,,0.00,WUHU21623XXSP,2013-07-22 01:19:00,
2013-07-21 20:24:00,63.9,52.7,29.77,South,180,0.0,4.9,67,0.00,,,0.00,WUHU21623XXSP,2013-07-22 01:24:00,
2013-07-21 20:29:00,64.0,52.8,29.78,SE,135,2.5,4.5,67,0.00,,,0.00,WUHU21623XXSP,2013-07-22 01:29:00,
2013-07-21 20:34:00,63.5,52.8,29.77,SE,135,1.6,5.1,68,0.00,,,0.00,WUHU21623XXSP,2013-07-22 01:34:00,
2013-07-21 20:39:00,63.3,51.7,29.77,SSE,157,0.0,5.1,66,0.00,,,0.00,WUHU21623XXSP,2013-07-22 01:39:00,
2013-07-21 20:44:00,63.0,51.8,29.78,SSE,157,2.0,4.9,67,0.00,,,0.00,WUHU21623XXSP,2013-07-22 01:44:00,
2013-07-21 20:49:00,62.4,51.7,29.78,SE,135,0.0,3.8,68,0.00,,,0.00,WUHU21623XXSP,2013-07-22 01:49:00,
2013-07-21 20:54:00,62.4,51.7,29.78,SE,135,0.7,3.6,68,0.00,,,0.00,WUHU21623XXSP,2013-07-22 01:54:00,
2013-07-21 20:59:00,61.9,51.2,29.78,SSE,157,0.0,5.6,68,0.00,,,0.00,WUHU21623XXSP,2013-07-22 01:59:00,
2013-07-21 21:04:00,61.5,50.9,29.78,ESE,112,1.8,5.6,68,0.00,,,0.00,WUHU21623XXSP,2013-07-22 02:04:00,
2013-07-21 21:09:00,61.5,50.5,29.78,SSE,157,2.2,5.1,67,0.00,,,0.00,WUHU21623XXSP,2013-07-22 02:09:00,
2013-07-21 21:14:00,61.0,50.0,29.78,SE,135,2.0,5.1,67,0.00,,,0.00,WUHU21623XXSP,2013-07-22 02:14:00,
2013-07-21 21:19:00,60.6,50.9,29.78,SSE,157,4.5,6.7,70,0.00,,,0.00,WUHU21623XXSP,2013-07-22 02:19:00,
2013-07-21 21:24:00,60.4,49.9,29.78,ESE,112,0.9,6.7,68,0.00,,,0.00,WUHU21623XXSP,2013-07-22 02:24:00,
2013-07-21 21:29:00,60.3,49.3,29.78,SSE,157,5.6,5.8,67,0.00,,,0.00,WUHU21623XXSP,2013-07-22 02:29:00,
2013-07-21 21:34:00,60.1,49.5,29.78,SE,135,4.3,7.2,68,0.00,,,0.00,WUHU21623XXSP,2013-07-22 02:34:00,
2013-07-21 21:39:00,60.1,48.7,29.78,SE,135,2.0,7.2,66,0.00,,,0.00,WUHU21623XXSP,2013-07-22 02:39:00,
2013-07-21 21:44:00,59.9,48.5,29.78,SSE,157,0.0,7.2,66,0.00,,,0.00,WUHU21623XXSP,2013-07-22 02:44:00,
2013-07-21 21:49:00,59.5,48.2,29.78,SSE,157,0.0,5.1,66,0.00,,,0.00,WUHU21623XXSP,2013-07-22 02:49:00,
2013-07-21 21:54:00,59.2,47.4,29.78,SSE,157,0.7,5.1,65,0.00,,,0.00,WUHU21623XXSP,2013-07-22 02:54:00,
2013-07-21 21:59:00,58.8,48.3,29.78,SE,135,3.4,4.9,68,0.00,,,0.00,WUHU21623XXSP,2013-07-22 02:59:00,
2013-07-21 22:04:00,58.8,48.3,29.78,ESE,112,0.0,6.0,68,0.00,,,0.00,WUHU21623XXSP,2013-07-22 03:04:00,
2013-07-21 22:09:00,58.6,47.7,29.78,SSE,157,0.4,6.0,67,0.00,,,0.00,WUHU21623XXSP,2013-07-22 03:09:00,
2013-07-21 22:14:00,58.5,47.1,29.77,SSE,157,0.0,8.3,66,0.00,,,0.00,WUHU21623XXSP,2013-07-22 03:14:00,
2013-07-21 22:19:00,58.5,47.1,29.77,South,180,2.0,8.3,66,0.00,,,0.00,WUHU21623XXSP,2013-07-22 03:19:00,
2013-07-21 22:24:00,58.5,46.7,29.76,SE,135,1.3,6.0,65,0.00,,,0.00,WUHU21623XXSP,2013-07-22 03:24:00,
2013-07-21 22:29:00,58.1,47.2,29.76,SE,135,0.0,5.6,67,0.00,,,0.00,WUHU21623XXSP,2013-07-22 03:29:00,
2013-07-21 22:34:00,57.9,47.4,29.76,South,180,0.0,5.1,68,0.00,,,0.00,WUHU21623XXSP,2013-07-22 03:34:00,
2013-07-21 22:39:00,57.4,47.7,29.76,SSE,157,0.0,4.5,70,0.00,,,0.00,WUHU21623XXSP,2013-07-22 03:39:00,
2013-07-21 22:44:00,57.0,46.9,29.76,SSE,157,1.1,4.7,69,0.00,,,0.00,WUHU21623XXSP,2013-07-22 03:44:00,
2013-07-21 22:49:00,56.8,46.7,29.76,South,180,3.6,6.0,69,0.00,,,0.00,WUHU21623XXSP,2013-07-22 03:49:00,
2013-07-21 22:54:00,56.8,46.7,29.77,SE,135,0.0,6.0,69,0.00,,,0.00,WUHU21623XXSP,2013-07-22 03:54:00,
2013-07-21 22:59:00,56.5,46.4,29.77,SSE,157,0.0,5.1,69,0.00,,,0.00,WUHU21623XXSP,2013-07-22 03:59:00,
2013-07-21 23:01:00,56.5,45.6,29.77,SSE,157,4.0,5.1,67,0.00,,,0.00,WUHU21623XXSP,2013-07-22 04:01:00,
2013-07-21 23:06:00,56.5,46.0,29.77,SE,135,1.3,5.1,68,0.00,,,0.00,WUHU21623XXSP,2013-07-22 04:06:00,
2013-07-21 23:11:00,56.3,46.7,29.76,South,180,1.1,4.7,70,0.00,,,0.00,WUHU21623XXSP,2013-07-22 04:11:00,
2013-07-21 23:16:00,56.1,46.5,29.76,South,180,0.0,3.4,70,0.00,,,0.00,WUHU21623XXSP,2013-07-22 04:16:00,
2013-07-21 23:21:00,55.9,46.3,29.76,SSE,157,8.7,8.7,70,0.00,,,0.00,WUHU21623XXSP,2013-07-22 04:21:00,
2013-07-21 23:26:00,55.9,46.3,29.77,SE,135,0.0,8.7,70,0.00,,,0.00,WUHU21623XXSP,2013-07-22 04:26:00,
2013-07-21 23:31:00,55.6,45.6,29.76,SE,135,3.1,4.0,69,0.00,,,0.00,WUHU21623XXSP,2013-07-22 04:31:00,
2013-07-21 23:36:00,55.6,45.2,29.76,SE,135,2.0,4.7,68,0.00,,,0.00,WUHU21623XXSP,2013-07-22 04:36:00,
2013-07-21 23:41:00,55.4,44.6,29.75,SSE,157,4.0,7.4,67,0.00,,,0.00,WUHU21623XXSP,2013-07-22 04:41:00,
2013-07-21 23:46:00,55.4,45.0,29.75,SSE,157,0.0,7.4,68,0.00,,,0.00,WUHU21623XXSP,2013-07-22 04:46:00,
2013-07-21 23:51:00,55.2,45.3,29.76,South,180,0.0,6.9,69,0.00,,,0.00,WUHU21623XXSP,2013-07-22 04:51:00,
2013-07-21 23:56:00,55.0,45.1,29.76,SE,135,0.9,5.1,69,0.00,,,0.00,WUHU21623XXSP,2013-07-22 04:56:00,